| time (UTC) | temp C | wind direction | speed KPH | gust KPH | rain 1hr cm | rain 24hr cm | rain mn cm | humidity % | barometer mb |
| 20260906130902 | 41 | 214 | 4.8 | 14.5 | 0.00 | 0.00 | 0.00 | 21 | 1005.2 |
| 20260906130003 | 41 | 199 | 4.8 | 14.5 | 0.00 | 0.00 | 0.00 | 21 | 1005.2 |
| 20260906125403 | 42 | 242 | 3.2 | 12.9 | 0.00 | 0.00 | 0.00 | 21 | 1005.2 |
| 20260906124505 | 42 | 253 | 3.2 | 12.9 | 0.00 | 0.00 | 0.00 | 22 | 1005.0 |
| 20260906123603 | 41 | 218 | 4.8 | 17.7 | 0.00 | 0.00 | 0.00 | 22 | 1005.4 |
| 20260906122702 | 42 | 190 | 6.4 | 17.7 | 0.00 | 0.00 | 0.00 | 20 | 1005.2 |
| 20260906121802 | 41 | 219 | 4.8 | 17.7 | 0.00 | 0.00 | 0.00 | 20 | 1005.4 |
| 20260906120903 | 41 | 224 | 3.2 | 12.9 | 0.00 | 0.00 | 0.00 | 22 | 1005.5 |
| 20260906120003 | 41 | 248 | 3.2 | 12.9 | 0.00 | 0.00 | 0.00 | 21 | 1005.3 |
| 20260906115403 | 42 | 235 | 3.2 | 12.9 | 0.00 | 0.00 | 0.00 | 21 | 1005.6 |
| 20260906114503 | 41 | 4 | 3.2 | 14.5 | 0.00 | 0.00 | 0.00 | 21 | 1005.7 |
| 20260906113605 | 41 | 215 | 3.2 | 14.5 | 0.00 | 0.00 | 0.00 | 21 | 1005.8 |
| 20260906112703 | 41 | 329 | 1.6 | 14.5 | 0.00 | 0.00 | 0.00 | 21 | 1005.7 |
| 20260906111806 | 41 | 118 | 6.4 | 17.7 | 0.00 | 0.00 | 0.00 | 21 | 1006.0 |
| 20260906110904 | 41 | 126 | 6.4 | 17.7 | 0.00 | 0.00 | 0.00 | 21 | 1005.9 |
| 20260906110004 | 41 | 91 | 3.2 | 14.5 | 0.00 | 0.00 | 0.00 | 21 | 1006.2 |
| 20260906105425 | 41 | 115 | 3.2 | 12.9 | 0.00 | 0.00 | 0.00 | 21 | 1006.1 |
| 20260906104503 | 41 | 67 | 4.8 | 22.5 | 0.00 | 0.00 | 0.00 | 21 | 1006.6 |
| 20260906103604 | 41 | 92 | 4.8 | 14.5 | 0.00 | 0.00 | 0.00 | 21 | 1006.3 |
| 20260906102704 | 41 | 124 | 4.8 | 16.1 | 0.00 | 0.00 | 0.00 | 21 | 1006.6 |
| 20260906101803 | 42 | 81 | 3.2 | 14.5 | 0.00 | 0.00 | 0.00 | 21 | 1006.4 |
| 20260906100903 | 41 | 119 | 6.4 | 16.1 | 0.00 | 0.00 | 0.00 | 20 | 1006.8 |
| 20260906100005 | 42 | 68 | 3.2 | 14.5 | 0.00 | 0.00 | 0.00 | 20 | 1006.8 |
| 20260906095405 | 41 | 220 | 4.8 | 14.5 | 0.00 | 0.00 | 0.00 | 20 | 1006.9 |
| 20260906094504 | 42 | 233 | 3.2 | 17.7 | 0.00 | 0.00 | 0.00 | 22 | 1006.7 |
| 20260906093605 | 41 | 232 | 6.4 | 17.7 | 0.00 | 0.00 | 0.00 | 22 | 1007.0 |
| 20260906092703 | 41 | 342 | 4.8 | 16.1 | 0.00 | 0.00 | 0.00 | 22 | 1007.1 |
| 20260906091802 | 41 | 83 | 4.8 | 16.1 | 0.00 | 0.00 | 0.00 | 22 | 1007.1 |
| 20260906090903 | 41 | 90 | 3.2 | 9.7 | 0.00 | 0.00 | 0.00 | 23 | 1007.4 |
| 20260906090004 | 40 | 120 | 4.8 | 12.9 | 0.00 | 0.00 | 0.00 | 25 | 1007.3 |
| 20260906085425 | 40 | 121 | 4.8 | 12.9 | 0.00 | 0.00 | 0.00 | 25 | 1007.4 |
| 20260906084525 | 40 | 80 | 3.2 | 9.7 | 0.00 | 0.00 | 0.00 | 26 | 1007.6 |
| 20260906083605 | 40 | 322 | 3.2 | 6.4 | 0.00 | 0.00 | 0.00 | 26 | 1007.5 |
| 20260906082703 | 38 | 302 | 3.2 | 9.7 | 0.00 | 0.00 | 0.00 | 26 | 1007.7 |
| 20260906081805 | 38 | 254 | 4.8 | 12.9 | 0.00 | 0.00 | 0.00 | 27 | 1008.1 |
| 20260906080903 | 37 | 254 | 4.8 | 9.7 | 0.00 | 0.00 | 0.00 | 27 | 1008.1 |
| 20260906080004 | 37 | 264 | 4.8 | 11.3 | 0.00 | 0.00 | 0.00 | 28 | 1008.3 |
| 20260906075403 | 37 | 261 | 6.4 | 11.3 | 0.00 | 0.00 | 0.00 | 27 | 1008.3 |
| 20260906074503 | 36 | 253 | 6.4 | 14.5 | 0.00 | 0.00 | 0.00 | 29 | 1008.6 |
| 20260906073603 | 36 | 238 | 8.0 | 14.5 | 0.00 | 0.00 | 0.00 | 31 | 1008.9 |
| 20260906072725 | 36 | 252 | 8.0 | 16.1 | 0.00 | 0.00 | 0.00 | 31 | 1008.8 |
| 20260906071804 | 36 | 260 | 6.4 | 12.9 | 0.00 | 0.00 | 0.00 | 30 | 1008.8 |
| 20260906070904 | 35 | 264 | 4.8 | 9.7 | 0.00 | 0.00 | 0.00 | 30 | 1009.0 |
| 20260906070003 | 35 | 296 | 3.2 | 6.4 | 0.00 | 0.00 | 0.00 | 30 | 1009.0 |
| 20260906065424 | 35 | 67 | 3.2 | 6.4 | 0.00 | 0.00 | 0.00 | 30 | 1008.9 |
| 20260906064506 | 34 | 85 | 3.2 | 6.4 | 0.00 | 0.00 | 0.00 | 31 | 1009.0 |
| 20260906063624 | 33 | 63 | 4.8 | 9.7 | 0.00 | 0.00 | 0.00 | 32 | 1008.9 |
| 20260906062703 | 32 | 88 | 4.8 | 9.7 | 0.00 | 0.00 | 0.00 | 32 | 1009.0 |
| 20260906061805 | 32 | 69 | 4.8 | 6.4 | 0.00 | 0.00 | 0.00 | 33 | 1009.2 |
| 20260906060903 | 33 | 67 | 3.2 | 4.8 | 0.00 | 0.00 | 0.00 | 33 | 1009.4 |
| 20260906060003 | 32 | 74 | 3.2 | 4.8 | 0.00 | 0.00 | 0.00 | 33 | 1009.6 |
| 20260906055404 | 32 | 56 | 1.6 | 4.8 | 0.00 | 0.00 | 0.00 | 32 | 1009.4 |
| 20260906054503 | 32 | 36 | 1.6 | 4.8 | 0.00 | 0.00 | 0.00 | 33 | 1009.6 |
| 20260906053603 | 31 | 26 | 3.2 | 6.4 | 0.00 | 0.00 | 0.00 | 34 | 1009.7 |
| 20260906052724 | 31 | 346 | 3.2 | 6.4 | 0.00 | 0.00 | 0.00 | 36 | 1009.4 |
| 20260906051804 | 30 | 325 | 1.6 | 4.8 | 0.00 | 0.00 | 0.00 | 38 | 1009.7 |
| 20260906050903 | 28 | 312 | 3.2 | 4.8 | 0.00 | 0.00 | 0.00 | 42 | 1009.8 |
| 20260906050005 | 28 | 314 | 1.6 | 4.8 | 0.00 | 0.00 | 0.00 | 42 | 1009.7 |
| 20260906045424 | 28 | 312 | 1.6 | 3.2 | 0.00 | 0.00 | 0.00 | 42 | 1009.5 |
| 20260906044504 | 28 | 307 | 3.2 | 4.8 | 0.00 | 0.00 | 0.00 | 43 | 1009.8 |
| 20260906043604 | 27 | 314 | 3.2 | 4.8 | 0.00 | 0.00 | 0.00 | 43 | 1009.8 |
| 20260906042704 | 27 | 321 | 1.6 | 3.2 | 0.00 | 0.00 | 0.00 | 43 | 1009.8 |
| 20260906041804 | 26 | 312 | 3.2 | 6.4 | 0.00 | 0.00 | 0.00 | 44 | 1009.7 |
| 20260906040904 | 26 | 315 | 3.2 | 6.4 | 0.00 | 0.00 | 0.00 | 45 | 1009.8 |
| 20260906032703 | 26 | 311 | 4.8 | 9.7 | 0.00 | 0.00 | 0.00 | 45 | 1009.5 |
| 20260906031804 | 26 | 309 | 3.2 | 9.7 | 0.00 | 0.00 | 0.00 | 47 | 1009.4 |
| 20260906030924 | 27 | 318 | 1.6 | 3.2 | 0.00 | 0.00 | 0.00 | 44 | 1009.1 |
| 20260906030003 | 26 | 319 | 1.6 | 3.2 | 0.00 | 0.00 | 0.00 | 43 | 1009.2 |
| 20260906025403 | 26 | 331 | 0.0 | 6.4 | 0.00 | 0.00 | 0.00 | 42 | 1009.1 |
| 20260906024503 | 27 | 319 | 4.8 | 9.7 | 0.00 | 0.00 | 0.00 | 43 | 1009.0 |
| 20260906023604 | 27 | 10 | 0.0 | 1.6 | 0.00 | 0.00 | 0.00 | 37 | 1008.7 |
| 20260906022704 | 27 | 324 | 1.6 | 3.2 | 0.00 | 0.00 | 0.00 | 37 | 1008.5 |
| 20260906021803 | 27 | 338 | 1.6 | 3.2 | 0.00 | 0.00 | 0.00 | 37 | 1008.6 |
| 20260906020904 | 27 | 50 | 3.2 | 11.3 | 0.00 | 0.00 | 0.00 | 36 | 1008.5 |
| 20260906020004 | 27 | 86 | 8.0 | 12.9 | 0.00 | 0.00 | 0.00 | 36 | 1008.5 |
| 20260906015404 | 28 | 93 | 8.0 | 12.9 | 0.00 | 0.00 | 0.00 | 35 | 1008.4 |
| 20260906014506 | 28 | 83 | 4.8 | 6.4 | 0.00 | 0.00 | 0.00 | 37 | 1008.5 |
| 20260906013604 | 28 | 74 | 3.2 | 9.7 | 0.00 | 0.00 | 0.00 | 36 | 1008.4 |
| 20260906012703 | 28 | 89 | 8.0 | 11.3 | 0.00 | 0.00 | 0.00 | 35 | 1008.3 |
| 20260906011805 | 28 | 88 | 6.4 | 11.3 | 0.00 | 0.00 | 0.00 | 36 | 1008.3 |
| 20260906010925 | 28 | 82 | 4.8 | 6.4 | 0.00 | 0.00 | 0.00 | 37 | 1008.4 |
| 20260906010003 | 28 | 57 | 3.2 | 4.8 | 0.00 | 0.00 | 0.00 | 39 | 1008.3 |
| 20260906005424 | 28 | 51 | 3.2 | 4.8 | 0.00 | 0.00 | 0.00 | 39 | 1008.6 |
| 20260906004503 | 28 | 353 | 0.0 | 3.2 | 0.00 | 0.00 | 0.00 | 39 | 1008.6 |
| 20260906003624 | 28 | 0 | 0.0 | 1.6 | 0.00 | 0.00 | 0.00 | 41 | 1008.4 |
| 20260906002703 | 28 | 316 | 0.0 | 3.2 | 0.00 | 0.00 | 0.00 | 41 | 1008.6 |
| 20260906001803 | 28 | 315 | 1.6 | 4.8 | 0.00 | 0.00 | 0.00 | 41 | 1008.5 |
| 20260906000903 | 28 | 316 | 0.0 | 1.6 | 0.00 | 0.00 | 0.00 | 39 | 1008.6 |
| 20260906000005 | 28 | 315 | 1.6 | 4.8 | 0.00 | 0.00 | 0.00 | 39 | 1008.6 |
| 20260905235405 | 29 | 311 | 1.6 | 4.8 | 0.00 | 0.00 | 0.00 | 40 | 1008.3 |
| 20260905234524 | 30 | 35 | 0.0 | 3.2 | 0.00 | 0.00 | 0.00 | 37 | 1008.4 |
| 20260905233604 | 30 | 354 | 0.0 | 1.6 | 0.00 | 0.00 | 0.00 | 37 | 1008.6 |
| 20260905232703 | 30 | 355 | 0.0 | 1.6 | 0.00 | 0.00 | 0.00 | 36 | 1008.3 |
| 20260905231806 | 30 | 14 | 1.6 | 6.4 | 0.00 | 0.00 | 0.00 | 35 | 1008.2 |
| 20260905230904 | 30 | 61 | 6.4 | 9.7 | 0.00 | 0.00 | 0.00 | 34 | 1008.3 |
| 20260905230005 | 30 | 43 | 4.8 | 6.4 | 0.00 | 0.00 | 0.00 | 35 | 1008.3 |
| 20260905225403 | 30 | 28 | 1.6 | 3.2 | 0.00 | 0.00 | 0.00 | 36 | 1008.5 |
| 20260905224504 | 30 | 334 | 0.0 | 1.6 | 0.00 | 0.00 | 0.00 | 36 | 1008.5 |
| 20260905223624 | 30 | 338 | 0.0 | 1.6 | 0.00 | 0.00 | 0.00 | 37 | 1008.6 |
| 20260905222704 | 29 | 0 | 0.0 | 0.0 | 0.00 | 0.00 | 0.00 | 37 | 1008.6 |
| 20260905221804 | 30 | 294 | 0.0 | 3.2 | 0.00 | 0.00 | 0.00 | 38 | 1008.5 |
| 20260905220904 | 30 | 277 | 0.0 | 3.2 | 0.00 | 0.00 | 0.00 | 38 | 1008.6 |
| 20260905220003 | 31 | 0 | 0.0 | 0.0 | 0.00 | 0.00 | 0.00 | 35 | 1008.6 |
| 20260905215404 | 31 | 0 | 0.0 | 0.0 | 0.00 | 0.00 | 0.00 | 34 | 1008.6 |
| 20260905214525 | 31 | 0 | 0.0 | 0.0 | 0.00 | 0.00 | 0.00 | 34 | 1008.6 |
| 20260905213627 | 30 | 0 | 0.0 | 0.0 | 0.00 | 0.00 | 0.00 | 34 | 1008.7 |
| 20260905212705 | 30 | 11 | 1.6 | 6.4 | 0.00 | 0.00 | 0.00 | 34 | 1008.7 |
| 20260905211803 | 31 | 64 | 6.4 | 11.3 | 0.00 | 0.00 | 0.00 | 34 | 1008.7 |
| 20260905210903 | 32 | 49 | 6.4 | 11.3 | 0.00 | 0.00 | 0.00 | 33 | 1008.6 |
| 20260905210004 | 32 | 54 | 6.4 | 11.3 | 0.00 | 0.00 | 0.00 | 33 | 1008.6 |
| 20260905205404 | 32 | 45 | 6.4 | 11.3 | 0.00 | 0.00 | 0.00 | 32 | 1008.5 |
| 20260905194505 | 33 | 316 | 4.8 | 9.7 | 0.00 | 0.00 | 0.00 | 31 | 1008.9 |
| 20260905191805 | 33 | 325 | 1.6 | 4.8 | 0.00 | 0.00 | 0.00 | 30 | 1008.7 |
| 20260905190905 | 33 | 328 | 1.6 | 4.8 | 0.00 | 0.00 | 0.00 | 31 | 1008.8 |
| 20260905190004 | 34 | 340 | 1.6 | 3.2 | 0.00 | 0.00 | 0.00 | 32 | 1008.7 |
| 20260905185404 | 33 | 350 | 0.0 | 3.2 | 0.00 | 0.00 | 0.00 | 32 | 1008.5 |
| 20260905184505 | 34 | 355 | 0.0 | 3.2 | 0.00 | 0.00 | 0.00 | 32 | 1008.8 |
| 20260905183604 | 34 | 357 | 0.0 | 3.2 | 0.00 | 0.00 | 0.00 | 31 | 1008.6 |
| 20260905182703 | 34 | 322 | 1.6 | 4.8 | 0.00 | 0.00 | 0.00 | 31 | 1008.8 |
| 20260905181804 | 34 | 327 | 1.6 | 4.8 | 0.00 | 0.00 | 0.00 | 30 | 1008.6 |
| 20260905180907 | 34 | 340 | 1.6 | 3.2 | 0.00 | 0.00 | 0.00 | 30 | 1008.6 |
| 20260905180003 | 34 | 323 | 3.2 | 6.4 | 0.00 | 0.00 | 0.00 | 31 | 1008.8 |
| 20260905175405 | 35 | 322 | 3.2 | 6.4 | 0.00 | 0.00 | 0.00 | 31 | 1008.8 |
| 20260905174504 | 35 | 327 | 1.6 | 4.8 | 0.00 | 0.00 | 0.00 | 31 | 1008.8 |
| 20260905173624 | 35 | 318 | 0.0 | 1.6 | 0.00 | 0.00 | 0.00 | 31 | 1008.8 |
| 20260905172703 | 35 | 317 | 0.0 | 1.6 | 0.00 | 0.00 | 0.00 | 30 | 1008.6 |
| 20260905171824 | 36 | 317 | 1.6 | 3.2 | 0.00 | 0.00 | 0.00 | 30 | 1008.5 |
| 20260905170904 | 36 | 315 | 3.2 | 4.8 | 0.00 | 0.00 | 0.00 | 30 | 1008.7 |
| 20260905170004 | 36 | 319 | 3.2 | 4.8 | 0.00 | 0.00 | 0.00 | 30 | 1008.4 |
| 20260905165403 | 36 | 325 | 1.6 | 3.2 | 0.00 | 0.00 | 0.00 | 31 | 1008.1 |
| 20260905164503 | 37 | 325 | 0.0 | 3.2 | 0.00 | 0.00 | 0.00 | 27 | 1008.0 |
| 20260905163604 | 38 | 357 | 1.6 | 3.2 | 0.00 | 0.00 | 0.00 | 26 | 1007.9 |
| 20260905162723 | 38 | 2 | 1.6 | 3.2 | 0.00 | 0.00 | 0.00 | 24 | 1007.8 |
| 20260905161803 | 38 | 8 | 1.6 | 3.2 | 0.00 | 0.00 | 0.00 | 24 | 1007.6 |
| 20260905160923 | 38 | 8 | 1.6 | 4.8 | 0.00 | 0.00 | 0.00 | 24 | 1007.5 |
| 20260905160023 | 39 | 8 | 1.6 | 4.8 | 0.00 | 0.00 | 0.00 | 24 | 1007.5 |
| 20260905155403 | 39 | 10 | 1.6 | 4.8 | 0.00 | 0.00 | 0.00 | 24 | 1007.5 |
| 20260905154523 | 39 | 4 | 3.2 | 6.4 | 0.00 | 0.00 | 0.00 | 24 | 1007.3 |
| 20260905153602 | 39 | 4 | 3.2 | 6.4 | 0.00 | 0.00 | 0.00 | 24 | 1007.2 |
| 20260905152701 | 39 | 3 | 3.2 | 9.7 | 0.00 | 0.00 | 0.00 | 24 | 1007.2 |
| 20260905151803 | 39 | 6 | 4.8 | 9.7 | 0.00 | 0.00 | 0.00 | 23 | 1007.1 |
| 20260905150923 | 40 | 357 | 6.4 | 11.3 | 0.00 | 0.00 | 0.00 | 23 | 1007.0 |
| 20260905150023 | 40 | 360 | 6.4 | 12.9 | 0.00 | 0.00 | 0.00 | 23 | 1007.2 |
| 20260905145422 | 40 | 14 | 8.0 | 16.1 | 0.00 | 0.00 | 0.00 | 23 | 1007.1 |
| 20260905144503 | 40 | 5 | 6.4 | 16.1 | 0.00 | 0.00 | 0.00 | 23 | 1007.2 |
| 20260905143603 | 40 | 357 | 8.0 | 16.1 | 0.00 | 0.00 | 0.00 | 23 | 1007.1 |
| 20260905142702 | 40 | 347 | 9.7 | 16.1 | 0.00 | 0.00 | 0.00 | 22 | 1007.0 |
| 20260905141802 | 40 | 342 | 8.0 | 16.1 | 0.00 | 0.00 | 0.00 | 22 | 1007.0 |
| 20260905140902 | 41 | 343 | 6.4 | 14.5 | 0.00 | 0.00 | 0.00 | 22 | 1007.2 |
| 20260905140002 | 41 | 8 | 8.0 | 16.1 | 0.00 | 0.00 | 0.00 | 22 | 1006.9 |
| 20260905135402 | 41 | 355 | 9.7 | 25.7 | 0.00 | 0.00 | 0.00 | 22 | 1006.8 |
| 20260905134523 | 41 | 313 | 6.4 | 16.1 | 0.00 | 0.00 | 0.00 | 22 | 1006.9 |
| 20260905133602 | 41 | 340 | 9.7 | 24.1 | 0.00 | 0.00 | 0.00 | 22 | 1006.8 |
| 20260905132723 | 41 | 10 | 6.4 | 16.1 | 0.00 | 0.00 | 0.00 | 22 | 1006.9 |
| 20260905131805 | 41 | 313 | 8.0 | 20.9 | 0.00 | 0.00 | 0.00 | 22 | 1006.8 |